Location: Branche des Alpilles
(43.6087°N, 4.6976°E)
Time: 18:47:13
(UTC+00:00)

Tiangong - Pass Details

Date: 30 September 2021
Orbit: 382 x 384 km, 41.5° (Epoch: 20 October)

Event Time Altitude Azimuth Distance (km) Brightness Sun altitude
Exits shadow 03:13:34 15° 108° (ESE) 1,140 4.0 -26.3°
Drops below altitude 10° 03:14:21 10° 99° (E) 1,397 4.6 -26.2°
Sets 03:16:43 0° 86° (E) 2,302 6.2 -25.8°
